THA314 VECC-VTBS

Flight info

Callsign THA314
Flight time N/A
Altitude 39000
Route DOPID2F DOPID P646 TARED DCT WILLA WILLA1C
Aircraft A20N/M-SDE2E3FGHIRWXY/LB1

Departure

Time 2026-05-08 12:20
Airport Netaji Subhash Chandra Bose International Airport (VECC)

Arrival

Time N/A
Airport Suvarnabhumi Airport (VTBS)
Time Latitude Longitude Altitude Speed Heading
2026-05-08 12:02 22.64874 88.44147 28 ft 0 kts 277°
2026-05-08 12:12 22.64873 88.44167 28 ft 2 kts 276°
2026-05-08 12:13 22.64871 88.44185 28 ft 2 kts 274°
2026-05-08 12:13 22.64870 88.44202 28 ft 2 kts 269°
2026-05-08 12:13 22.64872 88.44220 28 ft 2 kts 251°
2026-05-08 12:13 22.64882 88.44233 28 ft 2 kts 189°
2026-05-08 12:14 22.64886 88.44233 28 ft 0 kts 187°
2026-05-08 12:15 22.64884 88.44233 28 ft 2 kts 187°
2026-05-08 12:15 22.64833 88.44226 28 ft 10 kts 187°
2026-05-08 12:16 22.64750 88.44216 28 ft 14 kts 187°
2026-05-08 12:16 22.64647 88.44203 28 ft 16 kts 187°
2026-05-08 12:16 22.64550 88.44190 28 ft 18 kts 187°
2026-05-08 12:16 22.64425 88.44185 28 ft 11 kts 149°
2026-05-08 12:17 22.64421 88.44200 28 ft 6 kts 103°
2026-05-08 12:17 22.64424 88.44300 28 ft 16 kts 103°
2026-05-08 12:17 22.64323 88.44313 29 ft 18 kts 187°
2026-05-08 12:17 22.64188 88.44310 28 ft 16 kts 181°
2026-05-08 12:18 22.64072 88.44297 28 ft 18 kts 186°
2026-05-08 12:18 22.63942 88.44282 28 ft 19 kts 186°
2026-05-08 12:18 22.63801 88.44265 28 ft 21 kts 186°
2026-05-08 12:18 22.63660 88.44256 28 ft 13 kts 150°
2026-05-08 12:19 22.63642 88.44340 28 ft 13 kts 89°
2026-05-08 12:19 22.63687 88.44369 28 ft 8 kts 359°
2026-05-08 12:19 22.63715 88.44370 28 ft 12 kts
2026-05-08 12:19 22.64044 88.44409 29 ft 81 kts
2026-05-08 12:20 22.64801 88.44496 27 ft 135 kts
2026-05-08 12:20 22.65881 88.44621 55 ft 174 kts
2026-05-08 12:20 22.67087 88.44769 577 ft 173 kts
2026-05-08 12:20 22.68236 88.45154 1145 ft 173 kts 36°
2026-05-08 12:21 22.68923 88.46164 1794 ft 169 kts 71°
2026-05-08 12:21 22.69175 88.47468 2156 ft 187 kts 82°
2026-05-08 12:21 22.69373 88.48934 2515 ft 207 kts 80°
2026-05-08 12:21 22.69675 88.50485 2901 ft 225 kts 76°
2026-05-08 12:22 22.70116 88.52205 3289 ft 247 kts 73°
2026-05-08 12:22 22.70659 88.54055 3710 ft 268 kts 72°
2026-05-08 12:22 22.71258 88.55992 4446 ft 275 kts 71°
2026-05-08 12:22 22.71875 88.57971 5275 ft 278 kts 71°
2026-05-08 12:23 22.72496 88.59971 6114 ft 282 kts 71°
2026-05-08 12:23 22.73126 88.62008 6304 ft 286 kts 71°
2026-05-08 12:23 22.73755 88.64052 6405 ft 285 kts 71°
2026-05-08 12:23 22.74382 88.66093 6504 ft 287 kts 71°
2026-05-08 12:24 22.74936 88.68160 6600 ft 286 kts 83°
2026-05-08 12:24 22.74765 88.70292 6704 ft 287 kts 109°
2026-05-08 12:24 22.73747 88.72125 6809 ft 286 kts 136°
2026-05-08 12:24 22.72147 88.73397 6827 ft 286 kts 149°
2026-05-08 12:25 22.70425 88.74474 6829 ft 285 kts 151°
2026-05-08 12:25 22.68692 88.75530 6824 ft 285 kts 151°
2026-05-08 12:25 22.66976 88.76600 6827 ft 285 kts 150°
2026-05-08 12:25 22.65267 88.77695 6826 ft 285 kts 150°
2026-05-08 12:26 22.63566 88.78803 6825 ft 285 kts 149°
2026-05-08 12:26 22.61869 88.79918 6824 ft 285 kts 149°
2026-05-08 12:26 22.60175 88.81034 6828 ft 285 kts 149°
2026-05-08 12:26 22.58480 88.82151 6826 ft 285 kts 149°
2026-05-08 12:27 22.56784 88.83269 6825 ft 285 kts 149°
2026-05-08 12:27 22.55090 88.84384 6825 ft 285 kts 149°
2026-05-08 12:27 22.53397 88.85497 6826 ft 285 kts 149°
2026-05-08 12:27 22.51706 88.86609 6825 ft 285 kts 149°
2026-05-08 12:28 22.50014 88.87720 6829 ft 285 kts 150°
2026-05-08 12:28 22.48230 88.88654 6907 ft 287 kts 161°
2026-05-08 12:28 22.46335 88.89374 7376 ft 290 kts 161°
2026-05-08 12:28 22.44433 88.90113 8245 ft 290 kts 161°
2026-05-08 12:29 22.42518 88.90863 9006 ft 296 kts 160°
2026-05-08 12:29 22.40567 88.91628 9759 ft 300 kts 161°
2026-05-08 12:29 22.38599 88.92398 10267 ft 314 kts 161°
2026-05-08 12:29 22.36475 88.93228 10479 ft 336 kts 161°
2026-05-08 12:30 22.34216 88.94109 10833 ft 351 kts 161°
2026-05-08 12:30 22.31907 88.95012 11540 ft 354 kts 161°
2026-05-08 12:30 22.29582 88.95921 12215 ft 359 kts 161°
2026-05-08 12:30 22.27232 88.96839 12329 ft 358 kts 161°
2026-05-08 12:31 22.24886 88.97754 12441 ft 359 kts 162°
2026-05-08 12:31 22.22538 88.98668 12549 ft 359 kts 162°
2026-05-08 12:31 22.20236 88.99559 12654 ft 359 kts 163°
2026-05-08 12:31 22.17818 89.00219 12757 ft 358 kts 172°
2026-05-08 12:32 22.15347 89.00478 12859 ft 357 kts 181°
2026-05-08 12:32 22.12864 89.00436 12960 ft 357 kts 183°
2026-05-08 12:32 22.10379 89.00387 13059 ft 357 kts 182°
2026-05-08 12:32 22.07895 89.00346 13160 ft 357 kts 182°
2026-05-08 12:33 22.05404 89.00307 13262 ft 358 kts 182°
2026-05-08 12:33 22.02912 89.00269 13367 ft 358 kts 182°
2026-05-08 12:33 22.00420 89.00230 13466 ft 359 kts 182°
2026-05-08 12:33 21.97920 89.00190 13575 ft 359 kts 183°
2026-05-08 12:34 21.95417 89.00151 13670 ft 360 kts 183°
2026-05-08 12:34 21.92913 89.00111 13765 ft 360 kts 183°
2026-05-08 12:34 21.90405 89.00071 13849 ft 360 kts 183°
2026-05-08 12:34 21.87899 89.00031 13937 ft 361 kts 183°
2026-05-08 12:35 21.85382 88.99991 14029 ft 361 kts 183°
2026-05-08 12:35 21.82867 88.99951 14120 ft 361 kts 183°
2026-05-08 12:35 21.80354 88.99911 14213 ft 362 kts 183°
2026-05-08 12:35 21.77837 88.99871 14293 ft 362 kts 183°
2026-05-08 12:36 21.75377 88.99831 14393 ft 363 kts 183°
2026-05-08 12:36 21.72934 88.99792 14564 ft 366 kts 183°
2026-05-08 12:36 21.70384 88.99752 15225 ft 366 kts 183°
2026-05-08 12:36 21.68664 88.99725 15682 ft 367 kts 183°
2026-05-08 12:37 21.66099 88.99685 16272 ft 370 kts 184°
2026-05-08 12:37 21.65263 88.99672 16469 ft 371 kts 184°
2026-05-08 12:37 21.62670 88.99631 17041 ft 374 kts 184°
2026-05-08 12:38 21.55423 89.00670 18539 ft 389 kts 167°
2026-05-08 12:38 21.52824 89.01499 19041 ft 390 kts 168°
2026-05-08 12:38 21.50215 89.02320 19538 ft 392 kts 168°
2026-05-08 12:38 21.47588 89.03140 20032 ft 394 kts 168°
2026-05-08 12:39 21.44950 89.03961 20519 ft 396 kts 168°
2026-05-08 12:39 21.42332 89.04776 21008 ft 398 kts 169°
2026-05-08 12:39 21.39671 89.05603 21477 ft 400 kts 169°
2026-05-08 12:39 21.36987 89.06438 21947 ft 402 kts 169°
2026-05-08 12:40 21.34292 89.07276 22416 ft 404 kts 169°
2026-05-08 12:40 21.31587 89.08116 22875 ft 406 kts 169°
2026-05-08 12:40 21.28865 89.08961 23324 ft 408 kts 170°
2026-05-08 12:40 21.26128 89.09811 23700 ft 410 kts 170°
2026-05-08 12:41 21.23375 89.10665 24026 ft 413 kts 170°
2026-05-08 12:41 21.20603 89.11524 24360 ft 416 kts 170°
2026-05-08 12:41 21.17814 89.12388 24695 ft 419 kts 170°
2026-05-08 12:41 21.15009 89.13258 25008 ft 421 kts 169°
2026-05-08 12:42 21.12186 89.14132 25324 ft 423 kts 169°
2026-05-08 12:42 21.09346 89.15012 25640 ft 426 kts 169°
2026-05-08 12:42 21.06491 89.15896 25935 ft 428 kts 169°
2026-05-08 12:42 21.03616 89.16785 26228 ft 431 kts 169°
2026-05-08 12:43 21.00724 89.17678 26512 ft 434 kts 169°
2026-05-08 12:43 20.97818 89.18576 26789 ft 436 kts 169°
2026-05-08 12:43 20.94911 89.19567 27058 ft 443 kts 163°
2026-05-08 12:43 20.92169 89.21152 27319 ft 455 kts 150°
2026-05-08 12:44 20.89743 89.23375 27577 ft 466 kts 138°
2026-05-08 12:44 20.87688 89.26098 27835 ft 473 kts 131°
2026-05-08 12:44 20.85728 89.28934 28099 ft 475 kts 131°
2026-05-08 12:44 20.83768 89.31792 28357 ft 478 kts 131°
2026-05-08 12:45 20.81818 89.34620 28599 ft 479 kts 131°
2026-05-08 12:45 20.79799 89.37526 28848 ft 481 kts 131°
2026-05-08 12:45 20.77818 89.40362 29090 ft 483 kts 131°
2026-05-08 12:45 20.75801 89.43242 29322 ft 485 kts 131°
2026-05-08 12:46 20.73776 89.46128 29551 ft 487 kts 131°
2026-05-08 12:46 20.71740 89.49027 29787 ft 489 kts 131°
2026-05-08 12:46 20.69702 89.51929 29998 ft 490 kts 131°
2026-05-08 12:46 20.67645 89.54857 30225 ft 491 kts 131°
2026-05-08 12:47 20.65593 89.57777 30451 ft 493 kts 131°
2026-05-08 12:47 20.63533 89.60707 30674 ft 494 kts 131°
2026-05-08 12:47 20.61468 89.63642 30901 ft 495 kts 131°
2026-05-08 12:47 20.59401 89.66580 31178 ft 494 kts 131°
2026-05-08 12:48 20.57337 89.69511 31487 ft 493 kts 131°
2026-05-08 12:48 20.55281 89.72431 31793 ft 492 kts 131°
2026-05-08 12:48 20.53228 89.75345 32092 ft 491 kts 132°
2026-05-08 12:48 20.51175 89.78255 32395 ft 490 kts 132°
2026-05-08 12:49 20.49130 89.81154 32669 ft 489 kts 132°
2026-05-08 12:49 20.47086 89.84048 32947 ft 488 kts 132°
2026-05-08 12:49 20.45049 89.86932 33227 ft 487 kts 132°
2026-05-08 12:49 20.43013 89.89813 33493 ft 486 kts 132°
2026-05-08 12:50 20.40980 89.92688 33748 ft 485 kts 132°
2026-05-08 12:50 20.38952 89.95556 33974 ft 484 kts 132°
2026-05-08 12:50 20.36930 89.98412 34193 ft 483 kts 132°
2026-05-08 12:50 20.34908 90.01267 34399 ft 482 kts 132°
2026-05-08 12:51 20.32892 90.04111 34599 ft 481 kts 132°
2026-05-08 12:51 20.28865 90.09790 34985 ft 480 kts 132°
2026-05-08 12:51 20.26879 90.12589 35173 ft 479 kts 132°
2026-05-08 12:52 20.24869 90.15421 35369 ft 478 kts 132°
2026-05-08 12:52 20.20863 90.21059 35760 ft 477 kts 132°
2026-05-08 12:52 20.18858 90.23879 35953 ft 476 kts 132°
2026-05-08 12:53 20.16863 90.26684 36140 ft 476 kts 132°
2026-05-08 12:53 20.14866 90.29490 36343 ft 475 kts 132°
2026-05-08 12:53 20.12876 90.32285 36538 ft 474 kts 132°
2026-05-08 12:53 20.10883 90.35083 36721 ft 473 kts 132°
2026-05-08 12:54 20.08896 90.37871 36916 ft 473 kts 132°
2026-05-08 12:54 20.06909 90.40659 37103 ft 472 kts 132°
2026-05-08 12:54 20.04928 90.43436 37288 ft 471 kts 132°
2026-05-08 12:54 20.02946 90.46214 37468 ft 471 kts 132°
2026-05-08 12:55 20.00967 90.48986 37633 ft 470 kts 132°
2026-05-08 12:55 19.98992 90.51751 37790 ft 469 kts 132°
2026-05-08 12:55 19.97018 90.54513 37940 ft 469 kts 132°
2026-05-08 12:55 19.95044 90.57274 38103 ft 469 kts 132°
2026-05-08 12:56 19.93075 90.60028 38232 ft 468 kts 132°
2026-05-08 12:56 19.91101 90.62786 38368 ft 468 kts 132°
2026-05-08 12:56 19.89132 90.65537 38494 ft 467 kts 132°
2026-05-08 12:56 19.87163 90.68285 38608 ft 467 kts 132°
2026-05-08 12:57 19.83256 90.73737 38791 ft 467 kts 132°
2026-05-08 12:57 19.79326 90.79214 38849 ft 466 kts 132°
2026-05-08 12:58 19.75398 90.84685 38844 ft 465 kts 132°
2026-05-08 12:58 19.71471 90.90149 38847 ft 465 kts 132°
2026-05-08 12:59 19.67544 90.95608 38846 ft 465 kts 132°
2026-05-08 12:59 19.63615 91.01065 38845 ft 464 kts 132°
2026-05-08 13:00 19.59690 91.06512 38839 ft 464 kts 132°
2026-05-08 13:00 19.55766 91.11953 38841 ft 464 kts 132°
2026-05-08 13:01 19.51865 91.17356 38847 ft 464 kts 132°
2026-05-08 13:01 19.47940 91.22788 38850 ft 464 kts 132°
2026-05-08 13:02 19.44010 91.28221 38849 ft 464 kts 132°
2026-05-08 13:02 19.40087 91.33641 38847 ft 464 kts 132°
2026-05-08 13:03 19.36156 91.39067 38845 ft 463 kts 132°
2026-05-08 13:03 19.32236 91.44472 38848 ft 463 kts 131°
2026-05-08 13:04 19.28313 91.49878 38848 ft 463 kts 131°
2026-05-08 13:04 19.24393 91.55274 38846 ft 462 kts 131°
2026-05-08 13:05 19.20476 91.60661 38842 ft 461 kts 131°
2026-05-08 13:05 19.16594 91.65996 38841 ft 460 kts 131°
2026-05-08 13:06 19.12688 91.71358 38841 ft 460 kts 131°
2026-05-08 13:06 19.08787 91.76708 38843 ft 459 kts 131°
2026-05-08 13:07 19.04888 91.82051 38842 ft 459 kts 131°
2026-05-08 13:07 19.00992 91.87387 38841 ft 458 kts 131°
2026-05-08 13:08 18.97104 91.92707 38842 ft 457 kts 131°
2026-05-08 13:08 18.93214 91.98027 38837 ft 457 kts 131°
2026-05-08 13:09 18.89311 92.03319 38836 ft 456 kts 132°
2026-05-08 13:09 18.85380 92.08566 38838 ft 456 kts 132°
2026-05-08 13:10 18.81453 92.13818 38838 ft 455 kts 131°
2026-05-08 13:10 18.77533 92.19064 38837 ft 455 kts 131°
2026-05-08 13:11 18.73616 92.24303 38840 ft 454 kts 131°
2026-05-08 13:11 18.69705 92.29529 38840 ft 453 kts 131°
2026-05-08 13:12 18.65793 92.34751 38842 ft 453 kts 131°
2026-05-08 13:12 18.61894 92.39952 38839 ft 452 kts 131°
2026-05-08 13:13 18.58659 92.44265 38832 ft 449 kts 131°
2026-05-08 13:13 18.54780 92.49430 38833 ft 449 kts 131°
2026-05-08 13:14 18.50904 92.54589 38829 ft 448 kts 132°
2026-05-08 13:14 18.47037 92.59730 38831 ft 448 kts 131°
2026-05-08 13:15 18.43162 92.64878 38829 ft 448 kts 131°
2026-05-08 13:15 18.39284 92.70026 38832 ft 449 kts 131°
2026-05-08 13:16 18.35425 92.75145 38835 ft 449 kts 131°
2026-05-08 13:16 18.31531 92.80306 38835 ft 450 kts 131°
2026-05-08 13:17 18.27639 92.85461 38836 ft 450 kts 131°
2026-05-08 13:17 18.23733 92.90629 38835 ft 451 kts 131°
2026-05-08 13:18 18.19827 92.95794 38832 ft 451 kts 131°
2026-05-08 13:18 18.15917 93.00959 38836 ft 451 kts 131°
2026-05-08 13:19 18.12005 93.06124 38838 ft 451 kts 131°
2026-05-08 13:19 18.08088 93.11290 38834 ft 451 kts 131°
2026-05-08 13:20 18.04183 93.16438 38829 ft 450 kts 131°
2026-05-08 13:20 18.00280 93.21578 38830 ft 450 kts 131°
2026-05-08 13:21 17.96372 93.26720 38827 ft 450 kts 131°
2026-05-08 13:21 17.92465 93.31858 38829 ft 450 kts 131°
2026-05-08 13:22 17.88547 93.37005 38834 ft 451 kts 131°
2026-05-08 13:22 17.84650 93.42121 38835 ft 452 kts 131°
2026-05-08 13:23 17.80722 93.47274 38838 ft 452 kts 131°
2026-05-08 13:23 17.76789 93.52428 38837 ft 453 kts 131°
2026-05-08 13:24 17.72854 93.57583 38832 ft 452 kts 131°
2026-05-08 13:24 17.68922 93.62729 38834 ft 452 kts 131°
2026-05-08 13:25 17.64989 93.67872 38834 ft 452 kts 131°
2026-05-08 13:25 17.61060 93.73006 38834 ft 451 kts 131°
2026-05-08 13:26 17.57133 93.78134 38831 ft 451 kts 131°
2026-05-08 13:26 17.53209 93.83253 38831 ft 450 kts 131°
2026-05-08 13:27 17.49286 93.88367 38828 ft 450 kts 131°
2026-05-08 13:27 17.45365 93.93475 38831 ft 449 kts 131°
2026-05-08 13:28 17.41449 93.98572 38832 ft 449 kts 131°
2026-05-08 13:28 17.37559 94.03632 38828 ft 449 kts 131°
2026-05-08 13:29 17.33646 94.08717 38825 ft 448 kts 131°
2026-05-08 13:29 17.29733 94.13800 38824 ft 448 kts 131°
2026-05-08 13:30 17.25819 94.18879 38826 ft 448 kts 130°
2026-05-08 13:30 17.21900 94.23962 38826 ft 448 kts 131°
2026-05-08 13:31 17.17982 94.29038 38826 ft 448 kts 130°
2026-05-08 13:31 17.14058 94.34119 38827 ft 449 kts 130°
2026-05-08 13:32 17.10159 94.39163 38832 ft 449 kts 130°
2026-05-08 13:32 17.06235 94.44238 38836 ft 449 kts 130°
2026-05-08 13:33 17.02300 94.49321 38838 ft 450 kts 130°
2026-05-08 13:33 16.98360 94.54407 38841 ft 450 kts 130°
2026-05-08 13:34 16.94417 94.59494 38840 ft 451 kts 130°
2026-05-08 13:34 16.90469 94.64584 38840 ft 451 kts 130°
2026-05-08 13:35 16.86522 94.69670 38842 ft 451 kts 130°
2026-05-08 13:35 16.82575 94.74770 38844 ft 452 kts 129°
2026-05-08 13:36 16.81355 94.76530 38844 ft 452 kts 125°
2026-05-08 13:36 16.76335 94.86168 38838 ft 452 kts 118°
2026-05-08 13:37 16.73468 94.92002 38835 ft 452 kts 118°
2026-05-08 13:37 16.70615 94.97798 38837 ft 452 kts 118°
2026-05-08 13:38 16.68207 95.02685 38836 ft 452 kts 118°
2026-05-08 13:38 16.67742 95.03630 38835 ft 452 kts 118°